Time,TemperatureF,DewpointF,PressureIn,WindDirection,WindDirectionDegrees,WindSpeedMPH,WindSpeedGustMPH,Humidity,HourlyPrecipIn,Conditions,Clouds,dailyrainin,SolarRadiationWatts/m^2,SoftwareType,DateUTC
2013-08-03 00:01:00,62.6,58.7,29.96,WNW,283,0.0,0.0,87,0.00,,,0.00,0,WeatherCatV1.20B785,2013-08-03 04:01:00,
2013-08-03 00:03:00,62.5,58.2,29.95,WNW,283,0.0,0.0,86,0.00,,,0.00,0,WeatherCatV1.20B785,2013-08-03 04:03:00,
2013-08-03 00:06:00,62.5,58.2,29.95,WNW,283,0.0,0.0,86,0.00,,,0.00,0,WeatherCatV1.20B785,2013-08-03 04:06:00,
2013-08-03 00:10:00,62.5,58.2,29.95,WNW,283,0.0,0.0,86,0.00,,,0.00,0,WeatherCatV1.20B785,2013-08-03 04:10:00,
2013-08-03 00:11:00,62.5,58.2,29.95,WNW,283,0.0,0.0,86,0.00,,,0.00,0,WeatherCatV1.20B785,2013-08-03 04:11:00,
2013-08-03 00:15:00,62.5,58.2,29.95,WNW,283,0.0,0.0,86,0.00,,,0.00,0,WeatherCatV1.20B785,2013-08-03 04:15:00,
2013-08-03 00:18:00,62.4,58.2,29.95,WNW,283,0.0,0.0,86,0.00,,,0.00,0,WeatherCatV1.20B785,2013-08-03 04:18:00,
2013-08-03 00:22:00,62.3,58.0,29.94,WNW,283,0.0,0.0,86,0.00,,,0.00,0,WeatherCatV1.20B785,2013-08-03 04:22:00,
2013-08-03 00:27:00,62.5,58.2,29.94,WNW,283,0.0,0.0,86,0.00,,,0.00,0,WeatherCatV1.20B785,2013-08-03 04:27:00,
2013-08-03 00:31:00,62.5,58.2,29.94,WNW,283,0.0,0.0,86,0.00,,,0.00,0,WeatherCatV1.20B785,2013-08-03 04:31:00,
2013-08-03 00:35:00,62.5,58.2,29.94,WNW,283,0.0,0.0,86,0.00,,,0.00,0,WeatherCatV1.20B785,2013-08-03 04:35:00,
2013-08-03 00:40:00,62.5,58.2,29.95,WNW,283,0.0,0.0,86,0.00,,,0.00,0,WeatherCatV1.20B785,2013-08-03 04:40:00,
2013-08-03 00:41:00,62.5,58.2,29.94,WNW,283,0.0,0.0,86,0.00,,,0.00,0,WeatherCatV1.20B785,2013-08-03 04:41:00,
2013-08-03 00:45:00,62.6,58.3,29.94,WNW,283,0.0,0.0,86,0.00,,,0.00,0,WeatherCatV1.20B785,2013-08-03 04:45:00,
2013-08-03 00:46:00,62.6,58.3,29.94,WNW,283,0.0,0.0,86,0.00,,,0.00,0,WeatherCatV1.20B785,2013-08-03 04:46:00,
2013-08-03 00:49:00,62.7,58.5,29.94,WNW,283,0.0,0.0,86,0.00,,,0.00,0,WeatherCatV1.20B785,2013-08-03 04:49:00,
2013-08-03 00:50:00,62.8,58.5,29.94,WNW,283,0.0,0.0,86,0.00,,,0.00,0,WeatherCatV1.20B785,2013-08-03 04:50:00,
2013-08-03 00:53:00,62.8,58.5,29.94,WNW,283,0.0,0.0,86,0.00,,,0.00,0,WeatherCatV1.20B785,2013-08-03 04:53:00,
2013-08-03 00:56:00,62.9,58.6,29.94,WNW,283,0.0,0.0,86,0.00,,,0.00,0,WeatherCatV1.20B785,2013-08-03 04:56:00,
2013-08-03 01:00:00,63.0,59.1,29.94,WNW,283,0.0,0.0,87,0.00,,,0.00,0,WeatherCatV1.20B785,2013-08-03 05:00:00,
2013-08-03 01:01:00,63.0,59.1,29.94,WNW,283,0.0,0.0,87,0.00,,,0.00,0,WeatherCatV1.20B785,2013-08-03 05:01:00,
2013-08-03 01:07:00,63.0,59.1,29.95,WNW,283,0.0,0.0,87,0.00,,,0.00,0,WeatherCatV1.20B785,2013-08-03 05:07:00,
2013-08-03 01:11:00,62.9,59.0,29.95,WNW,283,0.0,0.0,87,0.00,,,0.00,0,WeatherCatV1.20B785,2013-08-03 05:11:00,
2013-08-03 01:16:00,62.7,58.8,29.94,WNW,283,0.0,0.0,87,0.00,,,0.00,0,WeatherCatV1.20B785,2013-08-03 05:16:00,
2013-08-03 01:21:00,62.6,58.7,29.94,WNW,283,0.0,0.0,87,0.00,,,0.00,0,WeatherCatV1.20B785,2013-08-03 05:21:00,
2013-08-03 01:25:00,62.6,58.7,29.94,WNW,283,0.0,0.0,87,0.00,,,0.00,0,WeatherCatV1.20B785,2013-08-03 05:25:00,
2013-08-03 01:26:00,62.6,58.7,29.94,WNW,283,0.0,0.0,87,0.00,,,0.00,0,WeatherCatV1.20B785,2013-08-03 05:26:00,
2013-08-03 01:27:00,62.6,58.7,29.94,WNW,283,0.0,0.0,87,0.00,,,0.00,0,WeatherCatV1.20B785,2013-08-03 05:27:00,
2013-08-03 01:32:00,62.6,58.7,29.94,WNW,283,0.0,0.0,87,0.00,,,0.00,0,WeatherCatV1.20B785,2013-08-03 05:32:00,
2013-08-03 01:36:00,62.6,58.7,29.94,WNW,283,0.0,0.0,87,0.00,,,0.00,0,WeatherCatV1.20B785,2013-08-03 05:36:00,
2013-08-03 01:41:00,62.6,58.7,29.94,WNW,283,0.0,0.0,87,0.00,,,0.00,0,WeatherCatV1.20B785,2013-08-03 05:41:00,
2013-08-03 01:44:00,62.5,58.6,29.94,WNW,283,0.0,0.0,87,0.00,,,0.00,0,WeatherCatV1.20B785,2013-08-03 05:44:00,
2013-08-03 01:48:00,62.3,58.4,29.94,WNW,283,0.0,0.0,87,0.00,,,0.00,0,WeatherCatV1.20B785,2013-08-03 05:48:00,
2013-08-03 01:52:00,62.3,58.4,29.93,WNW,283,0.0,0.0,87,0.00,,,0.00,0,WeatherCatV1.20B785,2013-08-03 05:52:00,
2013-08-03 01:57:00,62.2,58.3,29.94,WNW,283,0.0,0.0,87,0.00,,,0.00,0,WeatherCatV1.20B785,2013-08-03 05:57:00,
2013-08-03 02:00:00,62.1,58.2,29.94,WNW,283,0.0,0.0,87,0.00,,,0.00,0,WeatherCatV1.20B785,2013-08-03 06:00:00,
2013-08-03 02:03:00,62.2,58.3,29.94,WNW,283,0.0,0.0,87,0.00,,,0.00,0,WeatherCatV1.20B785,2013-08-03 06:03:00,
2013-08-03 02:07:00,62.2,58.3,29.93,WNW,283,0.0,0.0,87,0.00,,,0.00,0,WeatherCatV1.20B785,2013-08-03 06:07:00,
2013-08-03 02:11:00,62.1,58.2,29.94,WNW,283,0.0,0.0,87,0.00,,,0.00,0,WeatherCatV1.20B785,2013-08-03 06:11:00,
2013-08-03 02:16:00,62.0,58.1,29.93,WNW,283,0.0,0.0,87,0.00,,,0.00,0,WeatherCatV1.20B785,2013-08-03 06:16:00,
2013-08-03 02:21:00,61.9,58.0,29.94,WNW,283,0.0,0.0,87,0.00,,,0.00,0,WeatherCatV1.20B785,2013-08-03 06:21:00,
2013-08-03 02:24:00,61.8,57.9,29.93,WNW,283,0.0,0.0,87,0.00,,,0.00,0,WeatherCatV1.20B785,2013-08-03 06:24:00,
2013-08-03 02:26:00,61.8,57.9,29.94,WNW,283,0.0,0.0,87,0.00,,,0.00,0,WeatherCatV1.20B785,2013-08-03 06:26:00,
2013-08-03 02:30:00,61.7,57.5,29.93,WNW,283,0.0,0.0,86,0.00,,,0.00,0,WeatherCatV1.20B785,2013-08-03 06:30:00,
2013-08-03 02:31:00,61.7,57.5,29.93,WNW,283,0.0,0.0,86,0.00,,,0.00,0,WeatherCatV1.20B785,2013-08-03 06:31:00,
2013-08-03 02:34:00,61.7,57.5,29.93,WNW,283,0.0,0.0,86,0.00,,,0.00,0,WeatherCatV1.20B785,2013-08-03 06:34:00,
2013-08-03 02:36:00,61.7,57.5,29.93,WNW,283,0.0,0.0,86,0.00,,,0.00,0,WeatherCatV1.20B785,2013-08-03 06:36:00,
2013-08-03 02:41:00,61.7,57.5,29.93,WNW,283,0.0,0.0,86,0.00,,,0.00,0,WeatherCatV1.20B785,2013-08-03 06:41:00,
2013-08-03 02:44:00,61.7,57.5,29.93,WNW,283,0.0,0.0,86,0.00,,,0.00,0,WeatherCatV1.20B785,2013-08-03 06:44:00,
2013-08-03 02:47:00,61.8,57.6,29.93,WNW,283,0.0,0.0,86,0.00,,,0.00,0,WeatherCatV1.20B785,2013-08-03 06:47:00,
2013-08-03 02:51:00,61.8,57.6,29.93,WNW,283,0.0,0.0,86,0.00,,,0.00,0,WeatherCatV1.20B785,2013-08-03 06:51:00,
2013-08-03 02:57:00,61.8,57.6,29.93,WNW,283,0.0,0.0,86,0.00,,,0.00,0,WeatherCatV1.20B785,2013-08-03 06:57:00,
2013-08-03 03:02:00,61.9,57.7,29.93,WNW,283,0.0,0.0,86,0.00,,,0.00,0,WeatherCatV1.20B785,2013-08-03 07:02:00,
2013-08-03 03:05:00,62.0,57.8,29.93,WNW,283,0.0,0.0,86,0.00,,,0.00,0,WeatherCatV1.20B785,2013-08-03 07:05:00,
2013-08-03 03:09:00,62.0,57.8,29.93,WNW,283,0.0,0.0,86,0.00,,,0.00,0,WeatherCatV1.20B785,2013-08-03 07:09:00,
2013-08-03 03:15:00,62.0,57.8,29.93,WNW,283,0.0,0.0,86,0.00,,,0.00,0,WeatherCatV1.20B785,2013-08-03 07:15:00,
2013-08-03 03:16:00,62.0,57.8,29.93,WNW,283,0.0,0.0,86,0.00,,,0.00,0,WeatherCatV1.20B785,2013-08-03 07:16:00,
2013-08-03 03:21:00,62.1,57.9,29.93,WNW,283,0.0,0.0,86,0.00,,,0.00,0,WeatherCatV1.20B785,2013-08-03 07:21:00,
2013-08-03 03:23:00,62.2,58.0,29.93,WNW,283,0.0,0.0,86,0.00,,,0.00,0,WeatherCatV1.20B785,2013-08-03 07:23:00,
2013-08-03 03:26:00,62.2,58.0,29.93,WNW,283,0.0,0.0,86,0.00,,,0.00,0,WeatherCatV1.20B785,2013-08-03 07:26:00,
2013-08-03 03:29:00,62.3,58.0,29.93,WNW,283,0.0,0.0,86,0.00,,,0.00,0,WeatherCatV1.20B785,2013-08-03 07:29:00,
2013-08-03 03:31:00,62.3,58.0,29.93,WNW,283,0.0,0.0,86,0.00,,,0.00,0,WeatherCatV1.20B785,2013-08-03 07:31:00,
2013-08-03 03:37:00,62.4,58.2,29.93,WNW,283,0.0,0.0,86,0.00,,,0.00,0,WeatherCatV1.20B785,2013-08-03 07:37:00,
2013-08-03 03:40:00,62.4,58.2,29.93,WNW,283,0.0,0.0,86,0.00,,,0.00,0,WeatherCatV1.20B785,2013-08-03 07:40:00,
2013-08-03 03:41:00,62.5,58.2,29.93,WNW,283,0.0,0.0,86,0.00,,,0.00,0,WeatherCatV1.20B785,2013-08-03 07:41:00,
2013-08-03 03:44:00,62.5,58.2,29.93,WNW,283,0.0,0.0,86,0.00,,,0.00,0,WeatherCatV1.20B785,2013-08-03 07:44:00,
2013-08-03 03:47:00,62.5,58.2,29.93,WNW,283,0.0,0.0,86,0.00,,,0.00,0,WeatherCatV1.20B785,2013-08-03 07:47:00,
2013-08-03 03:50:00,62.5,58.2,29.93,WNW,283,0.0,0.0,86,0.00,,,0.00,0,WeatherCatV1.20B785,2013-08-03 07:50:00,
2013-08-03 03:51:00,62.6,58.3,29.93,WNW,283,0.0,0.0,86,0.00,,,0.00,0,WeatherCatV1.20B785,2013-08-03 07:51:00,
2013-08-03 03:56:00,62.6,58.3,29.93,WNW,283,0.0,0.0,86,0.00,,,0.00,0,WeatherCatV1.20B785,2013-08-03 07:56:00,
2013-08-03 04:02:00,62.7,58.5,29.93,WNW,283,0.0,0.0,86,0.00,,,0.00,0,WeatherCatV1.20B785,2013-08-03 08:02:00,
2013-08-03 04:05:00,62.7,58.5,29.94,WNW,283,0.0,0.0,86,0.00,,,0.00,0,WeatherCatV1.20B785,2013-08-03 08:05:00,
2013-08-03 04:10:00,62.8,58.9,29.93,WNW,283,0.0,0.0,87,0.00,,,0.00,0,WeatherCatV1.20B785,2013-08-03 08:10:00,
2013-08-03 04:16:00,63.1,59.2,29.94,WNW,283,0.0,0.0,87,0.00,,,0.00,0,WeatherCatV1.20B785,2013-08-03 08:16:00,
2013-08-03 04:22:00,63.2,59.3,29.94,WNW,283,0.0,0.0,87,0.00,,,0.00,0,WeatherCatV1.20B785,2013-08-03 08:22:00,
2013-08-03 04:27:00,63.2,59.3,29.93,WNW,283,0.0,0.0,87,0.00,,,0.00,0,WeatherCatV1.20B785,2013-08-03 08:27:00,
2013-08-03 04:32:00,63.2,59.3,29.94,WNW,283,0.0,0.0,87,0.00,,,0.00,0,WeatherCatV1.20B785,2013-08-03 08:32:00,
2013-08-03 04:36:00,63.2,59.3,29.94,WNW,283,0.0,0.0,87,0.00,,,0.00,0,WeatherCatV1.20B785,2013-08-03 08:36:00,
2013-08-03 04:40:00,63.2,59.3,29.94,WNW,283,0.0,0.0,87,0.00,,,0.00,0,WeatherCatV1.20B785,2013-08-03 08:40:00,
2013-08-03 04:41:00,63.2,59.3,29.94,WNW,283,0.0,0.0,87,0.00,,,0.00,0,WeatherCatV1.20B785,2013-08-03 08:41:00,
2013-08-03 04:43:00,63.2,59.3,29.94,WNW,283,0.0,0.0,87,0.00,,,0.00,0,WeatherCatV1.20B785,2013-08-03 08:43:00,
2013-08-03 04:47:00,63.2,59.3,29.94,WNW,283,0.0,0.0,87,0.00,,,0.00,0,WeatherCatV1.20B785,2013-08-03 08:47:00,
2013-08-03 04:51:00,63.2,59.3,29.94,WNW,283,0.0,0.0,87,0.00,,,0.00,0,WeatherCatV1.20B785,2013-08-03 08:51:00,
2013-08-03 04:54:00,63.2,59.3,29.94,WNW,283,0.0,0.0,87,0.00,,,0.00,0,WeatherCatV1.20B785,2013-08-03 08:54:00,
2013-08-03 04:59:00,63.3,59.4,29.94,WNW,283,0.0,0.0,87,0.00,,,0.00,0,WeatherCatV1.20B785,2013-08-03 08:59:00,
2013-08-03 05:03:00,63.3,59.4,29.94,WNW,283,0.0,0.0,87,0.00,,,0.00,0,WeatherCatV1.20B785,2013-08-03 09:03:00,
2013-08-03 05:06:00,63.2,59.3,29.93,WNW,283,0.0,0.0,87,0.00,,,0.00,0,WeatherCatV1.20B785,2013-08-03 09:06:00,
2013-08-03 05:11:00,63.3,59.4,29.94,WNW,283,0.0,0.0,87,0.00,,,0.00,0,WeatherCatV1.20B785,2013-08-03 09:11:00,
2013-08-03 05:13:00,63.3,59.4,29.94,WNW,283,0.0,0.0,87,0.00,,,0.00,0,WeatherCatV1.20B785,2013-08-03 09:13:00,
2013-08-03 05:18:00,63.3,59.4,29.93,WNW,283,0.0,0.0,87,0.00,,,0.00,0,WeatherCatV1.20B785,2013-08-03 09:18:00,
2013-08-03 05:21:00,63.3,59.4,29.93,WNW,283,0.0,0.0,87,0.00,,,0.00,0,WeatherCatV1.20B785,2013-08-03 09:21:00,
2013-08-03 05:24:00,63.3,59.4,29.93,WNW,283,0.0,0.0,87,0.00,,,0.00,0,WeatherCatV1.20B785,2013-08-03 09:24:00,
2013-08-03 05:26:00,63.3,59.4,29.93,WNW,283,0.0,0.0,87,0.00,,,0.00,0,WeatherCatV1.20B785,2013-08-03 09:26:00,
2013-08-03 05:28:00,63.3,59.4,29.93,WNW,283,0.0,0.0,87,0.00,,,0.00,0,WeatherCatV1.20B785,2013-08-03 09:28:00,
2013-08-03 05:33:00,63.3,59.0,29.93,WNW,283,0.0,0.0,86,0.00,,,0.00,0,WeatherCatV1.20B785,2013-08-03 09:33:00,
2013-08-03 05:36:00,63.2,58.9,29.93,WNW,283,0.0,0.0,86,0.00,,,0.00,0,WeatherCatV1.20B785,2013-08-03 09:36:00,
2013-08-03 05:41:00,63.2,58.9,29.93,WNW,283,0.0,0.0,86,0.00,,,0.00,0,WeatherCatV1.20B785,2013-08-03 09:41:00,
2013-08-03 05:47:00,63.3,59.0,29.93,WNW,283,0.0,0.0,86,0.00,,,0.00,0,WeatherCatV1.20B785,2013-08-03 09:47:00,
2013-08-03 05:50:00,63.3,59.0,29.93,WNW,283,0.0,0.0,86,0.00,,,0.00,0,WeatherCatV1.20B785,2013-08-03 09:50:00,
2013-08-03 05:51:00,63.3,59.0,29.93,WNW,283,0.0,1.0,86,0.00,,,0.00,0,WeatherCatV1.20B785,2013-08-03 09:51:00,
2013-08-03 05:56:00,63.3,59.0,29.93,WNW,283,0.0,0.0,86,0.00,,,0.00,0,WeatherCatV1.20B785,2013-08-03 09:56:00,
2013-08-03 05:59:00,63.3,59.0,29.93,WNW,283,0.0,0.0,86,0.00,,,0.00,0,WeatherCatV1.20B785,2013-08-03 09:59:00,
2013-08-03 06:02:00,63.2,58.9,29.93,WNW,283,0.0,0.0,86,0.00,,,0.00,0,WeatherCatV1.20B785,2013-08-03 10:02:00,
2013-08-03 06:06:00,63.2,58.9,29.93,WNW,283,0.0,0.0,86,0.00,,,0.00,0,WeatherCatV1.20B785,2013-08-03 10:06:00,
2013-08-03 06:10:00,63.3,59.0,29.93,WNW,283,0.0,0.0,86,0.00,,,0.00,0,WeatherCatV1.20B785,2013-08-03 10:10:00,
2013-08-03 06:11:00,63.3,59.0,29.93,WNW,283,0.0,0.0,86,0.00,,,0.00,0,WeatherCatV1.20B785,2013-08-03 10:11:00,
2013-08-03 06:15:00,63.2,58.9,29.93,WNW,283,0.0,0.0,86,0.00,,,0.00,0,WeatherCatV1.20B785,2013-08-03 10:15:00,
2013-08-03 06:18:00,63.3,59.0,29.93,WNW,283,0.0,0.0,86,0.00,,,0.00,0,WeatherCatV1.20B785,2013-08-03 10:18:00,
2013-08-03 06:22:00,63.3,59.0,29.93,WNW,283,0.0,0.0,86,0.00,,,0.00,0,WeatherCatV1.20B785,2013-08-03 10:22:00,
2013-08-03 06:26:00,63.4,59.1,29.93,WNW,283,0.0,0.0,86,0.00,,,0.00,0,WeatherCatV1.20B785,2013-08-03 10:26:00,
2013-08-03 06:31:00,63.4,59.1,29.93,WNW,283,1.0,1.0,86,0.00,,,0.00,5,WeatherCatV1.20B785,2013-08-03 10:31:00,
2013-08-03 06:35:00,63.5,59.2,29.94,WNW,283,1.0,1.0,86,0.00,,,0.00,5,WeatherCatV1.20B785,2013-08-03 10:35:00,
2013-08-03 06:36:00,63.5,59.2,29.94,WNW,283,0.0,1.0,86,0.00,,,0.00,5,WeatherCatV1.20B785,2013-08-03 10:36:00,
2013-08-03 06:41:00,63.6,59.3,29.94,WNW,283,0.0,0.0,86,0.00,,,0.00,5,WeatherCatV1.20B785,2013-08-03 10:41:00,
2013-08-03 06:45:00,63.6,59.3,29.93,WNW,283,0.0,0.0,86,0.00,,,0.00,5,WeatherCatV1.20B785,2013-08-03 10:45:00,
2013-08-03 06:46:00,63.6,59.3,29.93,WNW,283,0.0,0.0,86,0.00,,,0.00,5,WeatherCatV1.20B785,2013-08-03 10:46:00,
2013-08-03 06:50:00,63.6,59.7,29.94,WNW,283,0.0,0.0,87,0.00,,,0.00,5,WeatherCatV1.20B785,2013-08-03 10:50:00,
2013-08-03 06:53:00,63.7,59.8,29.94,WNW,283,0.0,1.0,87,0.00,,,0.00,5,WeatherCatV1.20B785,2013-08-03 10:53:00,
2013-08-03 06:56:00,63.8,59.8,29.94,WNW,283,0.0,0.0,87,0.00,,,0.00,5,WeatherCatV1.20B785,2013-08-03 10:56:00,
2013-08-03 07:03:00,64.0,60.0,29.94,WNW,283,0.0,0.0,87,0.00,,,0.00,0,WeatherCatV1.20B785,2013-08-03 11:03:00,
2013-08-03 07:05:00,64.0,60.0,29.94,WNW,283,0.0,0.0,87,0.00,,,0.00,5,WeatherCatV1.20B785,2013-08-03 11:05:00,
2013-08-03 07:11:00,64.2,60.2,29.94,WNW,284,0.0,0.0,87,0.00,,,0.00,9,WeatherCatV1.20B785,2013-08-03 11:11:00,
2013-08-03 07:16:00,64.3,60.3,29.94,WNW,284,0.0,0.0,87,0.00,,,0.00,14,WeatherCatV1.20B785,2013-08-03 11:16:00,
2013-08-03 07:20:00,64.4,60.4,29.94,WNW,284,0.0,0.0,87,0.00,,,0.00,19,WeatherCatV1.20B785,2013-08-03 11:20:00,
2013-08-03 07:21:00,64.5,60.5,29.94,WNW,284,0.0,0.0,87,0.00,,,0.00,21,WeatherCatV1.20B785,2013-08-03 11:21:00,
2013-08-03 07:24:00,64.7,60.7,29.95,WNW,284,0.0,0.0,87,0.00,,,0.00,14,WeatherCatV1.20B785,2013-08-03 11:24:00,
2013-08-03 07:27:00,64.7,60.7,29.94,WNW,284,0.0,0.0,87,0.00,,,0.00,12,WeatherCatV1.20B785,2013-08-03 11:27:00,
2013-08-03 07:30:00,64.8,60.8,29.94,WNW,284,0.0,0.0,87,0.00,,,0.00,16,WeatherCatV1.20B785,2013-08-03 11:30:00,
2013-08-03 07:32:00,64.8,60.8,29.94,WNW,284,0.0,0.0,87,0.00,,,0.00,18,WeatherCatV1.20B785,2013-08-03 11:32:00,
2013-08-03 07:33:00,64.8,60.8,29.94,WNW,284,0.0,0.0,87,0.00,,,0.00,18,WeatherCatV1.20B785,2013-08-03 11:33:00,
2013-08-03 07:37:00,64.9,60.9,29.94,WNW,284,0.0,0.0,87,0.00,,,0.00,16,WeatherCatV1.20B785,2013-08-03 11:37:00,
2013-08-03 07:42:00,65.0,61.0,29.94,WNW,284,0.0,0.0,87,0.00,,,0.00,11,WeatherCatV1.20B785,2013-08-03 11:42:00,
2013-08-03 07:48:00,65.0,61.0,29.94,WNW,284,0.0,0.0,87,0.00,,,0.00,16,WeatherCatV1.20B785,2013-08-03 11:48:00,
2013-08-03 07:53:00,64.9,60.9,29.94,WNW,284,0.0,0.0,87,0.00,,,0.00,21,WeatherCatV1.20B785,2013-08-03 11:53:00,
2013-08-03 07:56:00,64.9,60.6,29.94,WNW,284,0.0,0.0,86,0.00,,,0.00,23,WeatherCatV1.20B785,2013-08-03 11:56:00,
2013-08-03 07:58:00,64.9,60.9,29.94,WNW,284,0.0,0.0,87,0.00,,,0.00,25,WeatherCatV1.20B785,2013-08-03 11:58:00,
2013-08-03 08:02:00,64.9,60.6,29.95,WNW,284,0.0,0.0,86,0.00,,,0.00,30,WeatherCatV1.20B785,2013-08-03 12:02:00,
2013-08-03 08:05:00,64.9,60.6,29.95,WNW,284,0.0,0.0,86,0.00,,,0.00,33,WeatherCatV1.20B785,2013-08-03 12:05:00,
2013-08-03 08:10:00,65.0,60.7,29.94,WNW,284,0.0,0.0,86,0.00,,,0.00,44,WeatherCatV1.20B785,2013-08-03 12:10:00,
2013-08-03 08:13:00,65.0,60.7,29.94,WNW,284,0.0,1.0,86,0.00,,,0.00,44,WeatherCatV1.20B785,2013-08-03 12:13:00,
2013-08-03 08:17:00,65.1,60.8,29.94,WNW,284,0.0,0.0,86,0.00,,,0.00,33,WeatherCatV1.20B785,2013-08-03 12:17:00,
2013-08-03 08:21:00,65.1,60.8,29.94,WNW,284,0.0,0.0,86,0.00,,,0.00,33,WeatherCatV1.20B785,2013-08-03 12:21:00,
2013-08-03 08:26:00,65.2,60.6,29.95,WNW,284,0.0,0.0,85,0.00,,,0.00,35,WeatherCatV1.20B785,2013-08-03 12:26:00,
2013-08-03 08:28:00,65.3,60.7,29.95,WNW,284,0.0,0.0,85,0.00,,,0.00,33,WeatherCatV1.20B785,2013-08-03 12:28:00,
2013-08-03 08:31:00,65.3,60.7,29.95,WNW,284,0.0,0.0,85,0.00,,,0.00,32,WeatherCatV1.20B785,2013-08-03 12:31:00,
2013-08-03 08:34:00,65.4,60.8,29.95,WNW,284,0.0,0.0,85,0.00,,,0.00,30,WeatherCatV1.20B785,2013-08-03 12:34:00,
2013-08-03 08:38:00,65.4,60.8,29.95,WNW,284,0.0,0.0,85,0.00,,,0.00,32,WeatherCatV1.20B785,2013-08-03 12:38:00,
2013-08-03 08:42:00,65.4,61.1,29.95,WNW,284,0.0,0.0,86,0.00,,,0.00,40,WeatherCatV1.20B785,2013-08-03 12:42:00,
2013-08-03 08:45:00,65.4,61.1,29.95,WNW,284,0.0,0.0,86,0.00,,,0.00,47,WeatherCatV1.20B785,2013-08-03 12:45:00,
2013-08-03 08:50:00,65.6,61.0,29.95,WNW,284,0.0,0.0,85,0.00,,,0.00,44,WeatherCatV1.20B785,2013-08-03 12:50:00,
2013-08-03 08:51:00,65.6,61.0,29.95,WNW,284,0.0,0.0,85,0.00,,,0.00,44,WeatherCatV1.20B785,2013-08-03 12:51:00,
2013-08-03 08:57:00,65.7,61.1,29.95,WNW,284,0.0,0.0,85,0.00,,,0.00,74,WeatherCatV1.20B785,2013-08-03 12:57:00,
2013-08-03 09:01:00,65.9,61.3,29.95,WNW,284,0.0,0.0,85,0.00,,,0.00,104,WeatherCatV1.20B785,2013-08-03 13:01:00,
2013-08-03 09:02:00,65.9,61.3,29.95,WNW,284,0.0,0.0,85,0.00,,,0.00,105,WeatherCatV1.20B785,2013-08-03 13:02:00,
2013-08-03 09:05:00,66.1,61.5,29.95,WNW,284,0.0,0.0,85,0.00,,,0.00,105,WeatherCatV1.20B785,2013-08-03 13:05:00,
2013-08-03 09:06:00,66.2,61.5,29.95,WNW,284,0.0,0.0,85,0.00,,,0.00,105,WeatherCatV1.20B785,2013-08-03 13:06:00,
2013-08-03 09:08:00,66.3,61.7,29.95,WNW,284,0.0,0.0,85,0.00,,,0.00,98,WeatherCatV1.20B785,2013-08-03 13:08:00,
2013-08-03 09:11:00,66.4,61.8,29.95,WNW,284,0.0,0.0,85,0.00,,,0.00,91,WeatherCatV1.20B785,2013-08-03 13:11:00,
2013-08-03 09:13:00,66.5,61.8,29.95,WNW,284,0.0,0.0,85,0.00,,,0.00,97,WeatherCatV1.20B785,2013-08-03 13:13:00,
2013-08-03 09:15:00,66.6,61.9,29.95,WNW,284,0.0,0.0,85,0.00,,,0.00,102,WeatherCatV1.20B785,2013-08-03 13:15:00,
2013-08-03 09:18:00,66.7,62.0,29.96,WNW,284,0.0,0.0,85,0.00,,,0.00,97,WeatherCatV1.20B785,2013-08-03 13:18:00,
2013-08-03 09:21:00,66.8,62.1,29.95,WNW,284,0.0,0.0,85,0.00,,,0.00,98,WeatherCatV1.20B785,2013-08-03 13:21:00,
2013-08-03 09:26:00,67.1,62.4,29.95,WNW,284,0.0,0.0,85,0.00,,,0.00,111,WeatherCatV1.20B785,2013-08-03 13:26:00,
2013-08-03 09:33:00,67.6,62.9,29.95,WNW,284,0.0,0.0,85,0.00,,,0.00,84,WeatherCatV1.20B785,2013-08-03 13:33:00,
2013-08-03 09:37:00,67.8,63.5,29.95,WNW,284,0.0,0.0,86,0.00,,,0.00,72,WeatherCatV1.20B785,2013-08-03 13:37:00,
2013-08-03 09:42:00,68.0,63.7,29.95,WNW,284,0.0,0.0,86,0.00,,,0.00,67,WeatherCatV1.20B785,2013-08-03 13:42:00,
2013-08-03 09:46:00,68.1,63.8,29.95,WNW,284,0.0,0.0,86,0.00,,,0.00,65,WeatherCatV1.20B785,2013-08-03 13:46:00,
2013-08-03 09:51:00,68.2,63.8,29.95,WNW,284,0.0,0.0,86,0.00,,,0.00,84,WeatherCatV1.20B785,2013-08-03 13:51:00,
2013-08-03 09:56:00,68.3,63.9,29.95,WNW,284,0.0,0.0,86,0.00,,,0.00,105,WeatherCatV1.20B785,2013-08-03 13:56:00,
2013-08-03 09:59:00,68.3,63.9,29.95,WNW,284,0.0,0.0,86,0.00,,,0.00,109,WeatherCatV1.20B785,2013-08-03 13:59:00,
2013-08-03 10:04:00,68.4,64.0,29.95,WNW,284,0.0,0.0,86,0.00,,,0.00,90,WeatherCatV1.20B785,2013-08-03 14:04:00,
2013-08-03 10:06:00,68.4,64.0,29.95,WNW,284,0.0,0.0,86,0.00,,,0.00,84,WeatherCatV1.20B785,2013-08-03 14:06:00,
2013-08-03 10:13:00,68.6,64.2,29.95,WNW,284,0.0,0.0,86,0.00,,,0.00,69,WeatherCatV1.20B785,2013-08-03 14:13:00,
2013-08-03 10:20:00,68.6,64.6,29.96,WNW,284,0.0,0.0,87,0.00,,,0.00,62,WeatherCatV1.20B785,2013-08-03 14:20:00,
2013-08-03 10:27:00,68.6,64.6,29.96,WNW,284,0.0,0.0,87,0.00,,,0.00,79,WeatherCatV1.20B785,2013-08-03 14:27:00,
2013-08-03 10:32:00,68.6,64.6,29.95,WNW,284,0.0,0.0,87,0.00,,,0.00,79,WeatherCatV1.20B785,2013-08-03 14:32:00,
2013-08-03 10:37:00,68.7,64.7,29.95,WNW,284,0.0,0.0,87,0.00,,,0.00,97,WeatherCatV1.20B785,2013-08-03 14:37:00,
2013-08-03 10:42:00,68.8,64.8,29.95,WNW,284,0.0,0.0,87,0.00,,,0.00,104,WeatherCatV1.20B785,2013-08-03 14:42:00,
2013-08-03 10:45:00,68.9,64.9,29.95,WNW,284,0.0,0.0,87,0.00,,,0.00,81,WeatherCatV1.20B785,2013-08-03 14:45:00,
2013-08-03 10:46:00,68.9,64.9,29.95,WNW,284,0.0,0.0,87,0.00,,,0.00,72,WeatherCatV1.20B785,2013-08-03 14:46:00,
2013-08-03 10:47:00,68.9,64.9,29.95,WNW,284,0.0,0.0,87,0.00,,,0.00,67,WeatherCatV1.20B785,2013-08-03 14:47:00,
2013-08-03 10:51:00,68.9,64.9,29.95,WNW,284,0.0,0.0,87,0.00,,,0.00,63,WeatherCatV1.20B785,2013-08-03 14:51:00,
2013-08-03 10:53:00,68.9,64.9,29.95,WNW,284,0.0,0.0,87,0.00,,,0.00,67,WeatherCatV1.20B785,2013-08-03 14:53:00,
2013-08-03 10:58:00,69.0,65.0,29.95,WNW,284,0.0,0.0,87,0.00,,,0.00,70,WeatherCatV1.20B785,2013-08-03 14:58:00,
2013-08-03 11:02:00,69.0,65.0,29.95,WNW,284,0.0,0.0,87,0.00,,,0.00,69,WeatherCatV1.20B785,2013-08-03 15:02:00,
2013-08-03 11:06:00,69.0,65.0,29.95,WNW,284,0.0,0.0,87,0.00,,,0.00,83,WeatherCatV1.20B785,2013-08-03 15:06:00,
2013-08-03 11:10:00,69.1,65.1,29.95,WNW,284,0.0,0.0,87,0.00,,,0.00,116,WeatherCatV1.20B785,2013-08-03 15:10:00,
2013-08-03 11:11:00,69.2,65.2,29.95,WNW,284,0.0,0.0,87,0.00,,,0.00,116,WeatherCatV1.20B785,2013-08-03 15:11:00,
2013-08-03 11:15:00,69.3,65.3,29.95,WNW,284,0.0,0.0,87,0.00,,,0.00,98,WeatherCatV1.20B785,2013-08-03 15:15:00,
2013-08-03 11:19:00,69.4,65.3,29.95,WNW,284,0.0,0.0,87,0.00,,,0.00,90,WeatherCatV1.20B785,2013-08-03 15:19:00,
2013-08-03 11:21:00,69.4,65.3,29.95,WNW,284,0.0,1.0,87,0.00,,,0.00,83,WeatherCatV1.20B785,2013-08-03 15:21:00,
2013-08-03 11:26:00,69.7,65.3,29.95,WNW,284,0.0,0.0,86,0.00,,,0.00,93,WeatherCatV1.20B785,2013-08-03 15:26:00,
2013-08-03 11:30:00,69.7,65.3,29.96,WNW,284,0.0,0.0,86,0.00,,,0.01,86,WeatherCatV1.20B785,2013-08-03 15:30:00,
2013-08-03 11:32:00,69.7,65.7,29.96,WNW,284,0.0,0.0,87,0.00,,,0.01,83,WeatherCatV1.20B785,2013-08-03 15:32:00,
2013-08-03 11:38:00,69.6,65.6,29.96,WNW,284,0.0,0.0,87,0.00,,,0.01,97,WeatherCatV1.20B785,2013-08-03 15:38:00,
2013-08-03 11:42:00,69.6,65.2,29.96,WNW,284,0.0,0.0,86,0.05,,,0.02,116,WeatherCatV1.20B785,2013-08-03 15:42:00,
2013-08-03 11:46:00,69.7,65.3,29.96,WNW,284,0.0,0.0,86,0.05,,,0.02,100,WeatherCatV1.20B785,2013-08-03 15:46:00,
2013-08-03 11:51:00,69.7,65.3,29.96,WNW,284,0.0,1.0,86,0.10,,,0.03,120,WeatherCatV1.20B785,2013-08-03 15:51:00,
2013-08-03 11:54:00,69.8,65.1,29.96,WNW,284,0.0,0.0,85,0.09,,,0.03,153,WeatherCatV1.20B785,2013-08-03 15:54:00,
2013-08-03 11:56:00,69.9,65.5,29.96,WNW,284,0.0,0.0,86,0.06,,,0.03,190,WeatherCatV1.20B785,2013-08-03 15:56:00,
2013-08-03 12:01:00,70.2,65.5,29.96,WNW,283,0.0,0.0,85,0.04,,,0.03,153,WeatherCatV1.20B785,2013-08-03 16:01:00,
2013-08-03 12:08:00,70.2,65.5,29.95,WNW,283,0.0,0.0,85,0.00,,,0.03,160,WeatherCatV1.20B785,2013-08-03 16:08:00,
2013-08-03 12:12:00,70.4,65.7,29.95,WNW,283,0.0,0.0,85,0.00,,,0.03,179,WeatherCatV1.20B785,2013-08-03 16:12:00,
2013-08-03 12:17:00,70.6,65.9,29.95,WNW,287,0.0,0.0,85,0.00,,,0.03,246,WeatherCatV1.20B785,2013-08-03 16:17:00,
2013-08-03 12:19:00,70.7,66.0,29.95,WNW,287,0.0,0.0,85,0.00,,,0.03,236,WeatherCatV1.20B785,2013-08-03 16:19:00,
2013-08-03 12:23:00,70.9,66.2,29.95,West,273,0.0,0.0,85,0.00,,,0.03,225,WeatherCatV1.20B785,2013-08-03 16:23:00,
2013-08-03 12:28:00,71.0,66.6,29.95,West,273,0.0,0.0,86,0.00,,,0.03,163,WeatherCatV1.20B785,2013-08-03 16:28:00,
2013-08-03 12:29:00,70.9,66.5,29.95,West,273,0.0,0.0,86,0.00,,,0.03,156,WeatherCatV1.20B785,2013-08-03 16:29:00,
2013-08-03 12:32:00,70.9,66.5,29.95,West,273,0.0,0.0,86,0.00,,,0.03,105,WeatherCatV1.20B785,2013-08-03 16:32:00,
2013-08-03 12:34:00,70.8,66.4,29.95,West,273,0.0,0.0,86,0.00,,,0.03,98,WeatherCatV1.20B785,2013-08-03 16:34:00,
2013-08-03 12:37:00,70.8,66.7,29.95,West,273,0.0,0.0,87,0.00,,,0.03,134,WeatherCatV1.20B785,2013-08-03 16:37:00,
2013-08-03 12:40:00,70.7,66.6,29.95,West,273,0.0,0.0,87,0.00,,,0.03,162,WeatherCatV1.20B785,2013-08-03 16:40:00,
2013-08-03 12:41:00,70.7,66.6,29.95,West,273,0.0,0.0,87,0.00,,,0.03,162,WeatherCatV1.20B785,2013-08-03 16:41:00,
2013-08-03 12:45:00,70.7,66.3,29.95,West,273,0.0,0.0,86,0.00,,,0.03,142,WeatherCatV1.20B785,2013-08-03 16:45:00,
2013-08-03 12:48:00,70.9,66.5,29.95,West,273,0.0,0.0,86,0.00,,,0.03,162,WeatherCatV1.20B785,2013-08-03 16:48:00,
2013-08-03 12:52:00,70.8,66.4,29.95,NE,41,0.0,0.0,86,0.00,,,0.03,229,WeatherCatV1.20B785,2013-08-03 16:52:00,
2013-08-03 12:56:00,70.9,66.8,29.95,NE,42,0.0,0.0,87,0.00,,,0.03,225,WeatherCatV1.20B785,2013-08-03 16:56:00,
2013-08-03 13:00:00,70.9,66.8,29.95,East,83,2.0,2.0,87,0.00,,,0.03,258,WeatherCatV1.20B785,2013-08-03 17:00:00,
2013-08-03 13:01:00,71.0,66.9,29.95,West,275,1.0,2.0,87,0.00,,,0.03,258,WeatherCatV1.20B785,2013-08-03 17:01:00,
2013-08-03 13:08:00,71.5,67.1,29.94,SSE,160,0.0,1.0,86,0.00,,,0.03,285,WeatherCatV1.20B785,2013-08-03 17:08:00,
2013-08-03 13:12:00,71.8,67.4,29.94,West,277,0.0,0.0,86,0.00,,,0.03,274,WeatherCatV1.20B785,2013-08-03 17:12:00,
2013-08-03 13:18:00,71.8,67.7,29.95,NNW,329,0.0,1.0,87,0.00,,,0.03,322,WeatherCatV1.20B785,2013-08-03 17:18:00,
2013-08-03 13:22:00,72.0,67.6,29.94,WSW,257,0.0,0.0,86,0.00,,,0.03,381,WeatherCatV1.20B785,2013-08-03 17:22:00,
2013-08-03 13:27:00,72.7,68.3,29.94,NW,321,1.0,2.0,86,0.00,,,0.03,425,WeatherCatV1.20B785,2013-08-03 17:27:00,
2013-08-03 13:32:00,73.0,68.6,29.94,WSW,254,0.0,2.0,86,0.00,,,0.03,364,WeatherCatV1.20B785,2013-08-03 17:32:00,
2013-08-03 13:33:00,73.1,69.0,29.94,NNW,340,1.0,2.0,87,0.00,,,0.03,371,WeatherCatV1.20B785,2013-08-03 17:33:00,
2013-08-03 13:37:00,73.1,68.3,29.94,WNW,294,1.0,2.0,85,0.00,,,0.03,332,WeatherCatV1.20B785,2013-08-03 17:37:00,
2013-08-03 13:38:00,73.2,68.8,29.94,East,98,0.0,1.0,86,0.00,,,0.03,327,WeatherCatV1.20B785,2013-08-03 17:38:00,
2013-08-03 13:42:00,73.4,68.6,29.94,NE,40,0.0,0.0,85,0.00,,,0.03,250,WeatherCatV1.20B785,2013-08-03 17:42:00,
2013-08-03 13:46:00,73.5,69.0,29.94,West,280,0.0,0.0,86,0.00,,,0.03,267,WeatherCatV1.20B785,2013-08-03 17:46:00,
2013-08-03 13:50:00,73.6,69.1,29.94,West,280,0.0,0.0,86,0.00,,,0.03,239,WeatherCatV1.20B785,2013-08-03 17:50:00,
2013-08-03 13:51:00,73.7,69.2,29.94,West,280,0.0,0.0,86,0.00,,,0.03,234,WeatherCatV1.20B785,2013-08-03 17:51:00,
2013-08-03 13:55:00,73.7,68.9,29.94,East,92,0.0,2.0,85,0.00,,,0.03,246,WeatherCatV1.20B785,2013-08-03 17:55:00,
2013-08-03 13:56:00,73.7,68.9,29.94,East,92,0.0,0.0,85,0.00,,,0.03,209,WeatherCatV1.20B785,2013-08-03 17:56:00,
2013-08-03 13:59:00,73.8,69.3,29.94,East,92,0.0,0.0,86,0.00,,,0.03,178,WeatherCatV1.20B785,2013-08-03 17:59:00,
2013-08-03 14:03:00,73.9,69.1,29.94,East,92,0.0,0.0,85,0.00,,,0.03,153,WeatherCatV1.20B785,2013-08-03 18:03:00,
2013-08-03 14:07:00,73.9,68.8,29.94,West,281,3.0,3.0,84,0.00,,,0.03,118,WeatherCatV1.20B785,2013-08-03 18:07:00,
2013-08-03 14:10:00,73.8,69.0,29.94,NW,308,0.0,3.0,85,0.00,,,0.03,91,WeatherCatV1.20B785,2013-08-03 18:10:00,
2013-08-03 14:12:00,73.7,69.2,29.94,NW,308,0.0,1.0,86,0.00,,,0.03,114,WeatherCatV1.20B785,2013-08-03 18:12:00,
2013-08-03 14:16:00,73.6,68.8,29.94,NW,308,0.0,0.0,85,0.00,,,0.03,84,WeatherCatV1.20B785,2013-08-03 18:16:00,
2013-08-03 14:19:00,73.4,68.6,29.94,NW,308,0.0,1.0,85,0.00,,,0.03,46,WeatherCatV1.20B785,2013-08-03 18:19:00,
2013-08-03 14:24:00,73.1,68.3,29.94,NW,308,0.0,0.0,85,0.00,,,0.03,67,WeatherCatV1.20B785,2013-08-03 18:24:00,
2013-08-03 14:26:00,73.0,68.6,29.94,NW,308,0.0,0.0,86,0.00,,,0.03,77,WeatherCatV1.20B785,2013-08-03 18:26:00,
2013-08-03 14:33:00,72.8,68.7,29.94,NW,308,0.0,0.0,87,0.00,,,0.04,93,WeatherCatV1.20B785,2013-08-03 18:33:00,
2013-08-03 14:35:00,72.7,68.6,29.94,NW,308,0.0,0.0,87,0.17,,,0.05,76,WeatherCatV1.20B785,2013-08-03 18:35:00,
2013-08-03 14:37:00,72.6,68.5,29.94,NW,308,0.0,0.0,87,0.16,,,0.05,70,WeatherCatV1.20B785,2013-08-03 18:37:00,
2013-08-03 14:38:00,72.5,68.4,29.94,NW,308,0.0,0.0,87,0.14,,,0.05,79,WeatherCatV1.20B785,2013-08-03 18:38:00,
2013-08-03 14:43:00,72.2,68.1,29.94,NW,308,0.0,0.0,87,0.06,,,0.05,65,WeatherCatV1.20B785,2013-08-03 18:43:00,
2013-08-03 14:45:00,72.1,67.7,29.94,NW,308,0.0,0.0,86,0.05,,,0.05,63,WeatherCatV1.20B785,2013-08-03 18:45:00,
2013-08-03 14:46:00,72.0,67.6,29.94,NW,308,0.0,0.0,86,0.05,,,0.05,56,WeatherCatV1.20B785,2013-08-03 18:46:00,
2013-08-03 14:49:00,72.0,67.6,29.94,NW,308,0.0,0.0,86,0.04,,,0.05,33,WeatherCatV1.20B785,2013-08-03 18:49:00,
2013-08-03 14:53:00,71.9,67.5,29.94,NW,308,0.0,0.0,86,0.00,,,0.05,33,WeatherCatV1.20B785,2013-08-03 18:53:00,
2013-08-03 14:58:00,71.8,67.4,29.94,NW,308,0.0,0.0,86,0.00,,,0.05,33,WeatherCatV1.20B785,2013-08-03 18:58:00,
2013-08-03 15:02:00,71.7,67.3,29.94,NW,308,0.0,0.0,86,0.00,,,0.06,32,WeatherCatV1.20B785,2013-08-03 19:02:00,
2013-08-03 15:05:00,71.7,67.3,29.94,NW,308,0.0,0.0,86,0.18,,,0.07,35,WeatherCatV1.20B785,2013-08-03 19:05:00,
2013-08-03 15:08:00,71.7,67.3,29.94,NW,308,1.0,1.0,86,0.10,,,0.07,47,WeatherCatV1.20B785,2013-08-03 19:08:00,
2013-08-03 15:11:00,71.4,67.0,29.94,West,267,0.0,1.0,86,0.10,,,0.08,63,WeatherCatV1.20B785,2013-08-03 19:11:00,
2013-08-03 15:16:00,71.1,67.0,29.94,WNW,292,0.0,2.0,87,0.09,,,0.09,97,WeatherCatV1.20B785,2013-08-03 19:16:00,
2013-08-03 15:21:00,71.0,66.6,29.95,WNW,292,0.0,0.0,86,0.09,,,0.09,63,WeatherCatV1.20B785,2013-08-03 19:21:00,
2013-08-03 15:28:00,70.5,66.4,29.95,NNW,327,1.0,1.0,87,0.08,,,0.10,46,WeatherCatV1.20B785,2013-08-03 19:28:00,
2013-08-03 15:33:00,70.3,66.2,29.95,NW,325,1.0,2.0,87,0.06,,,0.10,37,WeatherCatV1.20B785,2013-08-03 19:33:00,
2013-08-03 15:37:00,69.9,65.8,29.95,NW,306,0.0,2.0,87,0.04,,,0.10,37,WeatherCatV1.20B785,2013-08-03 19:37:00,
2013-08-03 15:42:00,69.8,65.8,29.95,NW,306,0.0,0.0,87,0.00,,,0.10,37,WeatherCatV1.20B785,2013-08-03 19:42:00,
2013-08-03 15:44:00,69.7,65.7,29.95,NE,45,1.0,1.0,87,0.00,,,0.10,53,WeatherCatV1.20B785,2013-08-03 19:44:00,
2013-08-03 15:48:00,69.6,65.6,29.95,NE,46,0.0,2.0,87,0.00,,,0.11,65,WeatherCatV1.20B785,2013-08-03 19:48:00,
2013-08-03 15:51:00,69.5,65.4,29.94,NE,46,0.0,1.0,87,0.14,,,0.12,97,WeatherCatV1.20B785,2013-08-03 19:51:00,
2013-08-03 15:56:00,69.5,65.1,29.94,NE,46,0.0,0.0,86,0.08,,,0.12,111,WeatherCatV1.20B785,2013-08-03 19:56:00,
2013-08-03 16:03:00,69.6,65.2,29.93,SE,140,0.0,0.0,86,0.04,,,0.12,81,WeatherCatV1.20B785,2013-08-03 20:03:00,
2013-08-03 16:08:00,69.3,64.9,29.93,SE,128,0.0,2.0,86,0.00,,,0.12,113,WeatherCatV1.20B785,2013-08-03 20:08:00,
2013-08-03 16:12:00,69.2,64.8,29.93,SE,128,0.0,0.0,86,0.00,,,0.12,155,WeatherCatV1.20B785,2013-08-03 20:12:00,
2013-08-03 16:16:00,69.3,64.9,29.93,SE,135,0.0,1.0,86,0.00,,,0.12,148,WeatherCatV1.20B785,2013-08-03 20:16:00,
2013-08-03 16:20:00,69.3,64.9,29.93,SE,135,0.0,1.0,86,0.00,,,0.12,118,WeatherCatV1.20B785,2013-08-03 20:20:00,
2013-08-03 16:21:00,69.4,65.0,29.93,SE,135,0.0,0.0,86,0.00,,,0.12,114,WeatherCatV1.20B785,2013-08-03 20:21:00,
2013-08-03 16:27:00,69.2,64.8,29.93,SE,135,0.0,0.0,86,0.00,,,0.12,97,WeatherCatV1.20B785,2013-08-03 20:27:00,
2013-08-03 16:31:00,69.4,65.0,29.93,SE,135,0.0,0.0,86,0.00,,,0.12,114,WeatherCatV1.20B785,2013-08-03 20:31:00,
2013-08-03 16:35:00,69.6,64.9,29.93,SE,135,0.0,0.0,85,0.00,,,0.12,102,WeatherCatV1.20B785,2013-08-03 20:35:00,
2013-08-03 16:36:00,69.6,64.9,29.93,SE,135,0.0,0.0,85,0.00,,,0.12,95,WeatherCatV1.20B785,2013-08-03 20:36:00,
2013-08-03 16:40:00,69.6,65.2,29.93,SE,135,0.0,0.0,86,0.00,,,0.12,77,WeatherCatV1.20B785,2013-08-03 20:40:00,
2013-08-03 16:41:00,69.6,65.2,29.93,SE,135,0.0,0.0,86,0.00,,,0.12,77,WeatherCatV1.20B785,2013-08-03 20:41:00,
2013-08-03 16:44:00,69.7,65.0,29.93,SE,135,0.0,0.0,85,0.00,,,0.12,83,WeatherCatV1.20B785,2013-08-03 20:44:00,
2013-08-03 16:47:00,69.7,65.0,29.93,SE,135,0.0,0.0,85,0.00,,,0.12,102,WeatherCatV1.20B785,2013-08-03 20:47:00,
2013-08-03 16:50:00,69.8,65.1,29.93,SE,135,0.0,0.0,85,0.00,,,0.12,109,WeatherCatV1.20B785,2013-08-03 20:50:00,
2013-08-03 16:52:00,69.8,65.1,29.93,SE,135,0.0,0.0,85,0.00,,,0.12,107,WeatherCatV1.20B785,2013-08-03 20:52:00,
2013-08-03 16:57:00,69.9,65.2,29.93,SE,131,0.0,0.0,85,0.00,,,0.12,102,WeatherCatV1.20B785,2013-08-03 20:57:00,
2013-08-03 17:01:00,69.9,65.5,29.93,SE,131,0.0,0.0,86,0.00,,,0.12,100,WeatherCatV1.20B785,2013-08-03 21:01:00,
2013-08-03 17:06:00,70.0,65.6,29.93,SE,131,0.0,0.0,86,0.00,,,0.12,90,WeatherCatV1.20B785,2013-08-03 21:06:00,
2013-08-03 17:09:00,70.0,65.6,29.93,SE,131,0.0,0.0,86,0.00,,,0.12,104,WeatherCatV1.20B785,2013-08-03 21:09:00,
2013-08-03 17:13:00,70.0,65.6,29.93,SE,131,0.0,0.0,86,0.00,,,0.12,113,WeatherCatV1.20B785,2013-08-03 21:13:00,
2013-08-03 17:17:00,70.1,65.7,29.93,SE,126,0.0,0.0,86,0.00,,,0.12,192,WeatherCatV1.20B785,2013-08-03 21:17:00,
2013-08-03 17:21:00,70.2,65.8,29.93,SE,126,0.0,0.0,86,0.00,,,0.12,172,WeatherCatV1.20B785,2013-08-03 21:21:00,
2013-08-03 17:26:00,70.4,66.0,29.93,SE,126,0.0,0.0,86,0.00,,,0.12,142,WeatherCatV1.20B785,2013-08-03 21:26:00,
2013-08-03 17:31:00,70.6,65.9,29.93,SE,142,0.0,0.0,85,0.00,,,0.12,139,WeatherCatV1.20B785,2013-08-03 21:31:00,
2013-08-03 17:34:00,70.7,66.0,29.93,SE,143,0.0,0.0,85,0.00,,,0.12,135,WeatherCatV1.20B785,2013-08-03 21:34:00,
2013-08-03 17:39:00,70.6,66.2,29.93,SE,143,0.0,0.0,86,0.00,,,0.12,98,WeatherCatV1.20B785,2013-08-03 21:39:00,
2013-08-03 17:42:00,70.7,66.3,29.93,SE,143,0.0,0.0,86,0.00,,,0.12,100,WeatherCatV1.20B785,2013-08-03 21:42:00,
2013-08-03 17:48:00,70.6,66.2,29.92,SE,144,0.0,0.0,86,0.00,,,0.12,95,WeatherCatV1.20B785,2013-08-03 21:48:00,
2013-08-03 17:53:00,70.5,66.1,29.93,SE,141,0.0,0.0,86,0.00,,,0.12,60,WeatherCatV1.20B785,2013-08-03 21:53:00,
2013-08-03 17:59:00,70.4,66.0,29.92,West,278,0.0,0.0,86,0.00,,,0.12,40,WeatherCatV1.20B785,2013-08-03 21:59:00,
2013-08-03 18:00:00,70.4,66.0,29.92,West,278,0.0,0.0,86,0.00,,,0.12,33,WeatherCatV1.20B785,2013-08-03 22:00:00,
2013-08-03 18:01:00,70.4,66.0,29.92,West,278,0.0,0.0,86,0.00,,,0.12,28,WeatherCatV1.20B785,2013-08-03 22:01:00,
2013-08-03 18:07:00,70.3,65.9,29.92,West,267,0.0,1.0,86,0.00,,,0.12,19,WeatherCatV1.20B785,2013-08-03 22:07:00,
2013-08-03 18:11:00,70.1,65.7,29.93,West,267,0.0,0.0,86,0.00,,,0.12,47,WeatherCatV1.20B785,2013-08-03 22:11:00,
2013-08-03 18:16:00,69.9,65.5,29.92,South,187,0.0,1.0,86,0.00,,,0.12,35,WeatherCatV1.20B785,2013-08-03 22:16:00,
2013-08-03 18:19:00,69.8,65.4,29.92,West,264,0.0,1.0,86,0.00,,,0.12,21,WeatherCatV1.20B785,2013-08-03 22:19:00,
2013-08-03 18:21:00,69.7,65.3,29.92,West,278,0.0,1.0,86,0.00,,,0.12,28,WeatherCatV1.20B785,2013-08-03 22:21:00,
2013-08-03 18:26:00,69.5,65.1,29.92,West,277,0.0,1.0,86,0.00,,,0.12,42,WeatherCatV1.20B785,2013-08-03 22:26:00,
2013-08-03 18:29:00,69.5,65.1,29.92,West,260,0.0,0.0,86,0.00,,,0.12,33,WeatherCatV1.20B785,2013-08-03 22:29:00,
2013-08-03 18:34:00,69.4,65.0,29.92,West,275,1.0,1.0,86,0.00,,,0.12,16,WeatherCatV1.20B785,2013-08-03 22:34:00,
2013-08-03 18:37:00,69.2,64.8,29.92,West,275,1.0,2.0,86,0.00,,,0.12,9,WeatherCatV1.20B785,2013-08-03 22:37:00,
2013-08-03 18:41:00,69.0,64.6,29.93,WSW,255,0.0,2.0,86,0.00,,,0.13,11,WeatherCatV1.20B785,2013-08-03 22:41:00,
2013-08-03 18:46:00,68.7,64.3,29.93,SW,235,0.0,2.0,86,0.15,,,0.14,11,WeatherCatV1.20B785,2013-08-03 22:46:00,
2013-08-03 18:48:00,68.6,64.2,29.93,SW,235,1.0,1.0,86,0.21,,,0.15,9,WeatherCatV1.20B785,2013-08-03 22:48:00,
2013-08-03 18:50:00,68.6,63.9,29.93,WSW,237,0.0,2.0,85,0.16,,,0.15,16,WeatherCatV1.20B785,2013-08-03 22:50:00,
2013-08-03 18:51:00,68.6,63.9,29.93,WSW,237,0.0,2.0,85,0.14,,,0.15,21,WeatherCatV1.20B785,2013-08-03 22:51:00,
2013-08-03 18:55:00,68.5,63.8,29.93,WSW,246,0.0,0.0,85,0.48,,,0.17,21,WeatherCatV1.20B785,2013-08-03 22:55:00,
2013-08-03 18:56:00,68.5,63.8,29.92,WSW,246,0.0,0.0,85,0.25,,,0.17,19,WeatherCatV1.20B785,2013-08-03 22:56:00,
2013-08-03 19:01:00,68.5,63.8,29.92,SSE,158,0.0,2.0,85,0.16,,,0.18,12,WeatherCatV1.20B785,2013-08-03 23:01:00,
2013-08-03 19:07:00,68.4,63.7,29.91,WSW,251,0.0,1.0,85,0.06,,,0.18,21,WeatherCatV1.20B785,2013-08-03 23:07:00,
2013-08-03 19:10:00,68.4,63.7,29.92,NNW,330,0.0,3.0,85,0.05,,,0.18,21,WeatherCatV1.20B785,2013-08-03 23:10:00,
2013-08-03 19:13:00,68.3,63.6,29.92,NNW,330,0.0,0.0,85,0.04,,,0.18,19,WeatherCatV1.20B785,2013-08-03 23:13:00,
2013-08-03 19:17:00,68.2,63.5,29.92,East,81,0.0,0.0,85,0.00,,,0.18,19,WeatherCatV1.20B785,2013-08-03 23:17:00,
2013-08-03 19:23:00,68.2,63.5,29.91,SSE,167,0.0,1.0,85,0.00,,,0.18,23,WeatherCatV1.20B785,2013-08-03 23:23:00,
2013-08-03 19:26:00,68.2,63.5,29.91,NW,317,0.0,1.0,85,0.00,,,0.18,25,WeatherCatV1.20B785,2013-08-03 23:26:00,
2013-08-03 19:30:00,68.2,63.2,29.92,NW,317,0.0,0.0,84,0.00,,,0.18,32,WeatherCatV1.20B785,2013-08-03 23:30:00,
2013-08-03 19:31:00,68.2,63.2,29.92,NW,317,0.0,0.0,84,0.00,,,0.18,28,WeatherCatV1.20B785,2013-08-03 23:31:00,
2013-08-03 19:34:00,68.2,63.2,29.92,NNW,333,0.0,0.0,84,0.00,,,0.18,28,WeatherCatV1.20B785,2013-08-03 23:34:00,
2013-08-03 19:35:00,68.2,63.5,29.92,NNW,333,1.0,2.0,85,0.00,,,0.18,26,WeatherCatV1.20B785,2013-08-03 23:35:00,
2013-08-03 19:36:00,68.2,63.5,29.92,NW,315,1.0,2.0,85,0.00,,,0.18,16,WeatherCatV1.20B785,2013-08-03 23:36:00,
2013-08-03 19:42:00,68.1,63.4,29.93,NW,315,0.0,0.0,85,0.00,,,0.18,11,WeatherCatV1.20B785,2013-08-03 23:42:00,
2013-08-03 19:46:00,68.1,63.4,29.93,NW,315,0.0,1.0,85,0.00,,,0.18,16,WeatherCatV1.20B785,2013-08-03 23:46:00,
2013-08-03 19:50:00,68.1,63.1,29.93,NW,315,0.0,1.0,84,0.00,,,0.18,23,WeatherCatV1.20B785,2013-08-03 23:50:00,
2013-08-03 19:53:00,68.1,63.1,29.93,NW,315,1.0,1.0,84,0.00,,,0.18,26,WeatherCatV1.20B785,2013-08-03 23:53:00,
2013-08-03 19:56:00,68.2,63.2,29.93,NW,315,1.0,2.0,84,0.00,,,0.18,21,WeatherCatV1.20B785,2013-08-03 23:56:00,
2013-08-03 19:59:00,68.2,63.2,29.93,NW,315,1.0,1.0,84,0.00,,,0.18,21,WeatherCatV1.20B785,2013-08-03 23:59:00,
2013-08-03 20:04:00,68.1,63.1,29.93,WSW,252,0.0,1.0,84,0.00,,,0.18,23,WeatherCatV1.20B785,2013-08-04 00:04:00,
2013-08-03 20:09:00,68.1,63.4,29.94,WNW,282,0.0,2.0,85,0.00,,,0.18,19,WeatherCatV1.20B785,2013-08-04 00:09:00,
2013-08-03 20:12:00,68.0,63.3,29.94,WNW,282,0.0,0.0,85,0.00,,,0.18,14,WeatherCatV1.20B785,2013-08-04 00:12:00,
2013-08-03 20:14:00,67.9,63.2,29.94,WNW,282,0.0,0.0,85,0.00,,,0.18,9,WeatherCatV1.20B785,2013-08-04 00:14:00,
2013-08-03 20:18:00,67.9,63.2,29.93,WNW,282,0.0,0.0,85,0.00,,,0.18,5,WeatherCatV1.20B785,2013-08-04 00:18:00,
2013-08-03 20:22:00,67.7,63.0,29.93,WNW,282,0.0,1.0,85,0.00,,,0.18,0,WeatherCatV1.20B785,2013-08-04 00:22:00,
2013-08-03 20:26:00,67.7,63.0,29.94,WNW,282,0.0,0.0,85,0.00,,,0.18,0,WeatherCatV1.20B785,2013-08-04 00:26:00,
2013-08-03 20:33:00,67.5,62.8,29.93,WNW,282,0.0,0.0,85,0.00,,,0.18,0,WeatherCatV1.20B785,2013-08-04 00:33:00,
2013-08-03 20:36:00,67.5,62.8,29.93,West,281,0.0,0.0,85,0.00,,,0.18,0,WeatherCatV1.20B785,2013-08-04 00:36:00,
2013-08-03 20:39:00,67.4,62.7,29.93,West,281,0.0,0.0,85,0.00,,,0.18,0,WeatherCatV1.20B785,2013-08-04 00:39:00,
2013-08-03 20:43:00,67.3,62.6,29.93,West,281,0.0,0.0,85,0.00,,,0.18,0,WeatherCatV1.20B785,2013-08-04 00:43:00,
2013-08-03 20:47:00,67.1,62.4,29.94,West,281,0.0,0.0,85,0.00,,,0.18,0,WeatherCatV1.20B785,2013-08-04 00:47:00,
2013-08-03 20:52:00,67.0,62.3,29.94,West,281,0.0,0.0,85,0.00,,,0.18,0,WeatherCatV1.20B785,2013-08-04 00:52:00,
2013-08-03 20:55:00,66.8,62.1,29.94,West,281,0.0,0.0,85,0.00,,,0.18,0,WeatherCatV1.20B785,2013-08-04 00:55:00,
2013-08-03 21:00:00,66.7,62.0,29.93,West,281,0.0,0.0,85,0.00,,,0.18,0,WeatherCatV1.20B785,2013-08-04 01:00:00,
2013-08-03 21:01:00,66.7,62.0,29.93,West,281,0.0,0.0,85,0.00,,,0.18,0,WeatherCatV1.20B785,2013-08-04 01:01:00,
2013-08-03 21:04:00,66.6,61.9,29.93,West,281,0.0,0.0,85,0.00,,,0.18,0,WeatherCatV1.20B785,2013-08-04 01:04:00,
2013-08-03 21:05:00,66.5,61.8,29.93,West,281,0.0,0.0,85,0.00,,,0.18,0,WeatherCatV1.20B785,2013-08-04 01:05:00,
2013-08-03 21:07:00,66.5,61.8,29.94,West,279,0.0,0.0,85,0.00,,,0.18,0,WeatherCatV1.20B785,2013-08-04 01:07:00,
2013-08-03 21:09:00,66.5,61.8,29.94,West,279,0.0,0.0,85,0.00,,,0.18,0,WeatherCatV1.20B785,2013-08-04 01:09:00,
2013-08-03 21:12:00,66.4,61.8,29.94,West,279,0.0,0.0,85,0.00,,,0.18,0,WeatherCatV1.20B785,2013-08-04 01:12:00,
2013-08-03 21:17:00,66.3,61.7,29.94,West,279,0.0,0.0,85,0.00,,,0.18,0,WeatherCatV1.20B785,2013-08-04 01:17:00,
2013-08-03 21:22:00,66.2,61.5,29.94,West,279,0.0,0.0,85,0.00,,,0.18,0,WeatherCatV1.20B785,2013-08-04 01:22:00,
2013-08-03 21:26:00,66.2,61.5,29.94,West,279,0.0,0.0,85,0.00,,,0.18,0,WeatherCatV1.20B785,2013-08-04 01:26:00,
2013-08-03 21:27:00,66.2,61.5,29.94,West,279,0.0,0.0,85,0.00,,,0.18,0,WeatherCatV1.20B785,2013-08-04 01:27:00,
2013-08-03 21:32:00,66.1,61.5,29.94,West,277,0.0,0.0,85,0.00,,,0.18,0,WeatherCatV1.20B785,2013-08-04 01:32:00,
2013-08-03 21:35:00,66.0,61.3,29.94,West,277,0.0,0.0,85,0.00,,,0.18,0,WeatherCatV1.20B785,2013-08-04 01:35:00,
2013-08-03 21:37:00,66.0,61.3,29.94,West,277,0.0,0.0,85,0.00,,,0.18,0,WeatherCatV1.20B785,2013-08-04 01:37:00,
2013-08-03 21:44:00,65.9,61.3,29.94,WNW,298,0.0,0.0,85,0.00,,,0.18,0,WeatherCatV1.20B785,2013-08-04 01:44:00,
2013-08-03 21:48:00,65.8,61.2,29.94,East,96,1.0,2.0,85,0.00,,,0.18,0,WeatherCatV1.20B785,2013-08-04 01:48:00,
2013-08-03 21:53:00,65.9,61.3,29.94,East,98,0.0,1.0,85,0.00,,,0.18,0,WeatherCatV1.20B785,2013-08-04 01:53:00,
2013-08-03 21:56:00,65.9,61.3,29.94,WNW,293,0.0,3.0,85,0.00,,,0.18,0,WeatherCatV1.20B785,2013-08-04 01:56:00,
2013-08-03 22:01:00,65.8,61.2,29.94,WNW,293,0.0,0.0,85,0.00,,,0.18,0,WeatherCatV1.20B785,2013-08-04 02:01:00,
2013-08-03 22:05:00,65.8,61.2,29.94,WNW,293,0.0,0.0,85,0.00,,,0.18,0,WeatherCatV1.20B785,2013-08-04 02:05:00,
2013-08-03 22:06:00,65.8,61.2,29.94,WNW,293,0.0,0.0,85,0.00,,,0.18,0,WeatherCatV1.20B785,2013-08-04 02:06:00,
2013-08-03 22:11:00,65.6,61.0,29.94,WNW,293,0.0,0.0,85,0.00,,,0.18,0,WeatherCatV1.20B785,2013-08-04 02:11:00,
2013-08-03 22:15:00,65.5,60.9,29.94,WNW,293,0.0,0.0,85,0.00,,,0.18,0,WeatherCatV1.20B785,2013-08-04 02:15:00,
2013-08-03 22:19:00,65.4,60.8,29.94,WNW,293,0.0,0.0,85,0.00,,,0.18,0,WeatherCatV1.20B785,2013-08-04 02:19:00,
2013-08-03 22:21:00,65.4,60.8,29.94,WNW,293,0.0,0.0,85,0.00,,,0.18,0,WeatherCatV1.20B785,2013-08-04 02:21:00,
2013-08-03 22:28:00,65.2,60.6,29.94,WNW,293,0.0,0.0,85,0.00,,,0.18,0,WeatherCatV1.20B785,2013-08-04 02:28:00,
2013-08-03 22:32:00,65.0,60.4,29.94,WNW,293,0.0,0.0,85,0.00,,,0.18,0,WeatherCatV1.20B785,2013-08-04 02:32:00,
2013-08-03 22:35:00,64.9,60.3,29.94,WNW,293,0.0,0.0,85,0.00,,,0.18,0,WeatherCatV1.20B785,2013-08-04 02:35:00,
2013-08-03 22:38:00,64.9,60.3,29.94,WNW,293,0.0,0.0,85,0.00,,,0.18,0,WeatherCatV1.20B785,2013-08-04 02:38:00,
2013-08-03 22:41:00,64.8,60.2,29.94,WNW,293,0.0,0.0,85,0.00,,,0.18,0,WeatherCatV1.20B785,2013-08-04 02:41:00,
2013-08-03 22:44:00,64.8,60.2,29.94,WNW,293,0.0,0.0,85,0.00,,,0.18,0,WeatherCatV1.20B785,2013-08-04 02:44:00,
2013-08-03 22:46:00,64.8,60.2,29.94,WNW,293,0.0,0.0,85,0.00,,,0.18,0,WeatherCatV1.20B785,2013-08-04 02:46:00,
2013-08-03 22:51:00,64.7,60.1,29.94,WNW,293,0.0,0.0,85,0.00,,,0.18,0,WeatherCatV1.20B785,2013-08-04 02:51:00,
2013-08-03 22:56:00,64.7,60.1,29.94,NNW,348,0.0,1.0,85,0.00,,,0.18,0,WeatherCatV1.20B785,2013-08-04 02:56:00,
2013-08-03 22:58:00,64.7,60.1,29.94,NNW,348,0.0,0.0,85,0.00,,,0.18,0,WeatherCatV1.20B785,2013-08-04 02:58:00,
2013-08-03 23:01:00,64.7,60.1,29.95,NNW,348,0.0,0.0,85,0.00,,,0.18,0,WeatherCatV1.20B785,2013-08-04 03:01:00,
2013-08-03 23:04:00,64.7,60.1,29.95,NE,54,0.0,1.0,85,0.00,,,0.18,0,WeatherCatV1.20B785,2013-08-04 03:04:00,
2013-08-03 23:07:00,64.7,60.1,29.95,NE,56,0.0,0.0,85,0.00,,,0.18,0,WeatherCatV1.20B785,2013-08-04 03:07:00,
2013-08-03 23:10:00,64.7,60.1,29.94,NE,56,0.0,1.0,85,0.00,,,0.18,0,WeatherCatV1.20B785,2013-08-04 03:10:00,
2013-08-03 23:11:00,64.7,60.1,29.94,NE,56,0.0,1.0,85,0.00,,,0.18,0,WeatherCatV1.20B785,2013-08-04 03:11:00,
2013-08-03 23:14:00,64.7,60.1,29.95,NE,50,0.0,0.0,85,0.00,,,0.18,0,WeatherCatV1.20B785,2013-08-04 03:14:00,
2013-08-03 23:18:00,64.6,60.0,29.95,NE,50,0.0,0.0,85,0.00,,,0.18,0,WeatherCatV1.20B785,2013-08-04 03:18:00,
2013-08-03 23:21:00,64.5,59.9,29.95,NE,50,0.0,0.0,85,0.00,,,0.18,0,WeatherCatV1.20B785,2013-08-04 03:21:00,
2013-08-03 23:24:00,64.4,59.8,29.95,NE,49,0.0,0.0,85,0.00,,,0.18,0,WeatherCatV1.20B785,2013-08-04 03:24:00,
2013-08-03 23:29:00,64.4,59.8,29.95,NE,49,0.0,0.0,85,0.00,,,0.18,0,WeatherCatV1.20B785,2013-08-04 03:29:00,
2013-08-03 23:32:00,64.4,59.8,29.95,NE,49,0.0,0.0,85,0.00,,,0.18,0,WeatherCatV1.20B785,2013-08-04 03:32:00,
2013-08-03 23:37:00,64.1,59.5,29.95,NE,49,0.0,0.0,85,0.00,,,0.18,0,WeatherCatV1.20B785,2013-08-04 03:37:00,
2013-08-03 23:39:00,64.1,59.5,29.95,NE,49,0.0,1.0,85,0.00,,,0.18,0,WeatherCatV1.20B785,2013-08-04 03:39:00,
2013-08-03 23:42:00,64.0,59.4,29.95,NNW,337,0.0,0.0,85,0.00,,,0.18,0,WeatherCatV1.20B785,2013-08-04 03:42:00,
2013-08-03 23:46:00,64.0,59.4,29.95,NNW,327,0.0,3.0,85,0.00,,,0.18,0,WeatherCatV1.20B785,2013-08-04 03:46:00,
2013-08-03 23:52:00,64.0,59.4,29.94,NW,318,0.0,0.0,85,0.00,,,0.18,0,WeatherCatV1.20B785,2013-08-04 03:52:00,
2013-08-03 23:56:00,64.0,59.4,29.94,NNW,334,0.0,0.0,85,0.00,,,0.18,0,WeatherCatV1.20B785,2013-08-04 03:56:00,